EDT,Max TemperatureF,Mean TemperatureF,Min TemperatureF,Max Dew PointF,MeanDew PointF,Min DewpointF,Max Humidity, Mean Humidity, Min Humidity, Max Sea Level PressureIn, Mean Sea Level PressureIn, Min Sea Level PressureIn, Max VisibilityMiles, Mean VisibilityMiles, Min VisibilityMiles, Max Wind SpeedMPH, Mean Wind SpeedMPH, Max Gust SpeedMPH,PrecipitationIn, CloudCover, Events, WindDirDegrees
2013-8-1,85,77,69,72,69,66,93,77,61,30.06,30.00,29.91,10,8,2,15,6,25,0.51,6,Rain-Thunderstorm,255
2013-8-2,87,78,68,68,66,56,90,62,34,30.08,30.02,29.94,10,10,10,8,2,12,0.00,2,,289
2013-8-3,84,76,68,71,67,64,90,73,55,30.06,30.04,30.01,10,10,9,14,5,20,0.00,0,,274
2013-8-4,89,81,73,71,67,63,87,67,46,30.04,30.00,29.96,10,10,8,14,8,20,0.00,1,,314
2013-8-5,85,78,70,70,65,62,79,65,51,30.09,30.03,29.99,10,10,10,9,4,25,0.00,4,,73
2013-8-6,86,80,73,72,70,66,93,74,55,30.07,30.02,29.97,10,6,3,12,4,24,0.01,6,Rain,201
2013-8-7,78,74,69,72,70,66,100,88,76,30.12,30.07,30.00,10,5,1,15,4,32,1.88,7,Rain-Thunderstorm,133
2013-8-8,80,76,72,73,71,69,93,86,79,30.13,30.08,30.03,10,6,1,9,1,14,0.78,6,Rain-Thunderstorm,131
2013-8-9,87,80,72,73,71,69,93,75,57,30.14,30.08,30.03,10,7,1,10,3,20,T,4,Thunderstorm,204
2013-8-10,89,81,73,72,71,69,93,76,59,30.14,30.11,30.08,10,10,6,13,4,15,T,1,Thunderstorm,257
2013-8-11,88,80,71,73,70,68,93,74,55,30.22,30.15,30.07,10,9,1,21,5,32,0.95,3,Rain-Thunderstorm,247
2013-8-12,87,80,72,72,70,69,93,74,55,30.17,30.08,30.01,10,10,2,14,6,21,0.05,1,Rain-Thunderstorm,271
2013-8-13,84,78,71,72,70,69,93,81,69,30.04,29.96,29.88,10,10,8,15,8,32,0.00,3,,257
2013-8-14,78,74,69,70,67,64,87,77,67,30.08,29.97,29.89,10,10,9,9,5,13,T,3,,83
2013-8-15,74,70,65,64,59,56,87,72,57,30.12,30.08,30.03,10,9,8,18,10,24,0.00,8,,74
2013-8-16,69,65,60,61,59,57,97,87,76,30.17,30.12,30.06,10,8,2,17,9,26,0.23,8,Rain,81
2013-8-17,65,63,61,63,60,57,93,86,78,30.19,30.15,30.11,10,6,2,15,10,23,0.35,8,Rain,84
2013-8-18,72,68,64,68,65,63,100,92,84,30.25,30.20,30.13,10,4,0,12,5,25,0.83,7,Fog-Rain,76
2013-8-19,74,71,67,70,66,64,100,92,84,30.21,30.16,30.09,10,7,1,13,6,16,1.24,8,Rain,75
2013-8-20,80,75,69,70,67,66,93,84,74,30.24,30.17,30.11,10,10,10,10,6,24,T,6,,77
2013-8-21,79,75,70,71,69,68,93,82,71,30.30,30.23,30.14,10,9,2,9,3,26,0.11,6,Rain,94
2013-8-22,86,78,69,70,68,66,97,79,61,30.22,30.14,30.07,10,9,3,14,3,24,0.16,3,Rain-Thunderstorm,281
2013-8-23,89,78,66,70,67,63,97,70,43,30.14,30.07,29.99,10,9,0,20,4,28,0.01,2,Fog-Thunderstorm,305
2013-8-24,81,74,67,66,64,62,87,73,58,30.28,30.19,30.06,10,10,10,17,8,23,0.00,2,,81
2013-8-25,81,72,63,63,59,56,84,66,48,30.38,30.32,30.27,10,10,10,14,7,17,0.00,2,,76
2013-8-26,81,72,62,61,59,55,90,70,49,30.32,30.26,30.17,10,10,10,9,3,17,0.00,1,,85
2013-8-27,86,74,62,68,62,58,93,67,40,30.18,30.11,30.05,10,10,7,8,3,25,0.00,1,,277
2013-8-28,88,79,69,71,67,64,90,69,48,30.06,30.02,29.98,10,8,6,14,5,31,0.00,0,,291
2013-8-29,91,81,70,71,69,67,90,70,49,30.01,29.97,29.93,10,9,6,12,6,16,0.00,1,,295
2013-8-30,85,79,73,72,71,69,87,76,65,30.10,30.02,29.96,10,8,5,14,5,17,0.00,4,,91
2013-8-31,88,79,69,72,69,64,93,75,57,30.04,29.97,29.91,10,6,0,16,2,29,1.69,4,Rain-Thunderstorm,240